VZLUSAT-1 (42790 NORAD) Tracking and Keplerian Element Data

This shows tracking and keplerian element data for the satellite.

Feedback or suggestion? Click here.




ElementValue
Catalog42790
NameVZLUSAT-1
Epoch Orbit5916
Epoch Day198.71930367
Epoch Year2018
RAAN258.2309
Inclination97.3994
Eccentricity0.0010586
Argument of Perigee337.8046
Mean Anonmoly22.2731
Mean Motion15.2235645
Decay Rate1.418E-05
L11 42790U 17036AB 18198.71930367 .00001418 00000-0 64409-4 0 9993
L22 42790 97.3994 258.2309 0010586 337.8046 22.2731 15.22356450 59166

Live tracking and technical data element details for VZLUSAT-1 (NORAD 42790). VZLUSAT-1 can be tracked NOW for your location showing map with azimuth and elevation plus other details from your city location.

Track the satellite on the map from your city or location and see movement details for azimuth, elevation, latitude, longitude, range, height, and movement on the map or in text.







IsCatalogInMostPopularTable: catalog: 42790, numindb: 94
Update: records affected: 1



GetName: 42790 VZLUSAT-1

Hit Count: updated at: Thu, 19 Jul 2018 03:29:37 GMT